Regional Weather Roundup
Issued by NWS

Home | Current Version | Previous Version | Text Only | Print | Product List | Glossary On
Versions: 1 2 3 4 5 6 7 8 9 10 11 12 13 14 15 16 17 18 19 20 21 22 23 24 25 26 27 28 29 30 31 32 33 34 35 36 37 38 39 40 41 42 43 44 45 46 47 48 49 50
000
ASUS45 KPSR 311210
RWRAZ

ARIZONA HOURLY REGIONAL WEATHER ROUNDUP
NATIONAL WEATHER SERVICE PHOENIX AZ
500 AM MST TUE MAY 31 2016

NOTE: FAIR INDICATES FEW OR NO CLOUDS BELOW 12,000 FEET WITH NO
SIGNIFICANT WEATHER AND/OR OBSTRUCTIONS TO VISIBILITY.

AZZ001>003-036-311300-
NORTHWEST ARIZONA

CITY           SKY/WX    TMP DP  RH WIND       PRES   REMARKS
KINGMAN        PTCLDY    58  26  29 CALM      29.90S
6HR MIN TEMP:  58; 6HR MAX TEMP:  67;

$$

AZZ004>008-015-016-018-311300-
NORTH CENTRAL ARIZONA

CITY           SKY/WX    TMP DP  RH WIND       PRES   REMARKS
GRAND CANYON   CLEAR     34  24  67 CALM      30.10S
6HR MIN TEMP:  34; 6HR MAX TEMP:  42;

WILLIAMS       CLEAR     37  25  60 S9        30.17R WCI  31
PRESCOTT       CLEAR     48  24  39 SW5       30.00S
6HR MIN TEMP:  48; 6HR MAX TEMP:  59;

FLAGSTAFF      PTCLDY    32  24  72 CALM      30.11S
6HR MIN TEMP:  32; 6HR MAX TEMP:  45;

PAYSON         CLEAR     52  14  22 CALM      30.02S
PAGE           CLEAR     63  32  31 S3        29.96R
6HR MIN TEMP:  61; 6HR MAX TEMP:  71;

$$

AZZ009>014-017-311300-
NORTHEAST ARIZONA

CITY           SKY/WX    TMP DP  RH WIND       PRES   REMARKS
WINSLOW        CLEAR     48  20  32 CALM      30.00R
6HR MIN TEMP:  48; 6HR MAX TEMP:  64;

SAINT JOHNS    MOCLDY    49  21  33 NW5       30.02F
6HR MIN TEMP:  49; 6HR MAX TEMP:  60;

WINDOW ROCK    PTCLDY    38  23  55 S3        30.09R
6HR MIN TEMP:  38; 6HR MAX TEMP:  60;

SHOW LOW       MOCLDY    45  12  26 CALM      30.08S
$$

AZZ023-311300-
GREATER PHOENIX AREA

CITY           SKY/WX    TMP DP  RH WIND       PRES   REMARKS
PHOENIX        PTCLDY    70  27  20 E9        29.77R
6HR MIN TEMP:  70; 6HR MAX TEMP:  83;

BUCKEYE        CLEAR     68  27  21 E6        29.78S
LUKE AFB       CLEAR     64  27  24 N3        29.77R
6HR MIN TEMP:  63; 6HR MAX TEMP:  77;

DEER VALLEY    CLEAR     67  15  13 N8        29.78R
6HR MIN TEMP:  67; 6HR MAX TEMP:  76;

SCOTTSDALE     CLEAR     67  30  25 CALM      29.80R
6HR MIN TEMP:  66; 6HR MAX TEMP:  77;

MESA-GATEWAY   CLEAR     63  23  22 E8        29.80R
$$

AZZ027-028-311300-
SOUTHWEST MARICOPA COUNTY AND PINAL COUNTY

CITY           SKY/WX    TMP DP  RH WIND       PRES   REMARKS
CASA GRANDE    CLEAR     61  23  23 CALM      29.80S
6HR MIN TEMP:  61; 6HR MAX TEMP:  75;

GILA BEND      FAIR      70  26  19 SE9       29.75S
6HR MIN TEMP:  68; 6HR MAX TEMP:  78;

$$

AZZ503-504-507>509-311300-
SOUTHEAST ARIZONA

CITY           SKY/WX    TMP DP  RH WIND       PRES   REMARKS
TUCSON         CLEAR     62  21  20 SE10      29.88S
6HR MIN TEMP:  62; 6HR MAX TEMP:  74;

DAVIS-MONTHAN  CLEAR     60  19  20 SE10      29.87R
6HR MIN TEMP:  60; 6HR MAX TEMP:  71;

NOGALES        CLEAR     54  20  26 E7        29.94R
6HR MIN TEMP:  52; 6HR MAX TEMP:  63;

SIERRA VISTA   CLEAR     59  22  24 CALM      29.98R
6HR MIN TEMP:  55; 6HR MAX TEMP:  66;

DOUGLAS        CLEAR     62  28  27 SE7       29.96S
6HR MIN TEMP:  57; 6HR MAX TEMP:  67;

SAFFORD        CLEAR     59  18  20 E3        29.88R
6HR MIN TEMP:  57; 6HR MAX TEMP:  75;

$$

AZZ020-021-025-026-031-311300-
SOUTHWEST ARIZONA

CITY           SKY/WX    TMP DP  RH WIND       PRES   REMARKS
YUMA           CLEAR     75  40  28 CALM      29.71S
6HR MIN TEMP:  75; 6HR MAX TEMP:  79;

$$

CAZ031-033-041-043-047-048-061-311300-
SOUTHERN CALIFORNIA

CITY           SKY/WX    TMP DP  RH WIND       PRES   REMARKS
DOWNTOWN L.A.  CLOUDY    61  56  83 CALM      29.87S
6HR MIN TEMP:  60; 6HR MAX TEMP:  61;

L.A. AIRPORT   CLOUDY    60  55  83 CALM      29.87S
6HR MIN TEMP:  59; 6HR MAX TEMP:  60;

SAN DIEGO      CLOUDY    64  56  75 CALM      29.89S
6HR MIN TEMP:  64; 6HR MAX TEMP:  65;

BURBANK        CLOUDY    57  55  93 VRB5      29.86S
6HR MIN TEMP:  56; 6HR MAX TEMP:  60;

ONTARIO        PTCLDY    57  53  86 W3        29.87S FOG
6HR MIN TEMP:  56; 6HR MAX TEMP:  62;

RIVERSIDE      CLEAR     58  54  86 CALM      29.87F
6HR MIN TEMP:  58; 6HR MAX TEMP:  63;

PALM SPRINGS   CLEAR     73  54  51 S3        29.73S
6HR MIN TEMP:  72; 6HR MAX TEMP:  84;

EL CENTRO NAS  CLEAR     70  39  32 SW5       29.70S
6HR MIN TEMP:  70; 6HR MAX TEMP:  84;

IMPERIAL       CLEAR     72  42  34 S3        29.68S
6HR MIN TEMP:  71; 6HR MAX TEMP:  83;

BLYTHE         CLEAR     72  40  31 NW7       29.71R
6HR MIN TEMP:  71; 6HR MAX TEMP:  86;

NEEDLES        CLEAR     76  27  16 NW6       29.73R
6HR MIN TEMP:  75; 6HR MAX TEMP:  91;

$$

NVZ020-UTZ003-311300-
SOUTHERN NEVADA-UTAH

CITY           SKY/WX    TMP DP  RH WIND       PRES   REMARKS
LAS VEGAS      PTCLDY    78  34  20 CALM      29.81R
6HR MIN TEMP:  77; 6HR MAX TEMP:  87;

SALT LAKE CITY PTCLDY    53  41  63 SE5       30.06R
6HR MIN TEMP:  53; 6HR MAX TEMP:  66;

$$

NMZ009-TXZ055-311300-
NEW MEXICO-WEST TEXAS

CITY           SKY/WX    TMP DP  RH WIND       PRES   REMARKS
ALBUQUERQUE    CLOUDY    63  39  41 E3        30.01S
6HR MIN TEMP:  61; 6HR MAX TEMP:  70;

EL PASO        CLOUDY    65  54  67 S9        29.94S
6HR MIN TEMP:  63; 6HR MAX TEMP:  69; 6HR PCP:  0.06;

$$


........................KEY........................
SKY/WX - SKY CONDITION/WEATHER
TMP    - TEMPERATURE IN FAHRENHEIT
DP     - DEW POINT IN FAHRENHEIT
RH     - RELATIVE HUMIDITY IN PERCENT
WIND   - DIRECTION AND SPEED IN MILES PER HOUR (MPH)
VRB    - VARIABLE WIND DIRECTION
PRES   - MEAN SEA LEVEL PRESSURE IN INCHES OF MERCURY
         F - FALLING PRESSURE   R - RISING PRESSURE
         S - STEADY PRESSURE
VSB    - VISIBILITY IN MILES
HX     - HEAT INDEX IN FAHRENHEIT
WCI    - WIND CHILL INDEX IN FAHRENHEIT
TC     - TEMPERATURE IN CELSIUS WHICH IS ALSO KNOWN AS
         TEMPERATURE IN CENTIGRADE
AFB    - AIR FORCE BASE
         LUKE AFB IS LUKE AIR FORCE BASE
         DAVIS-MONTHAN IS DAVIS-MONTHAN AIR FORCE BASE
NAS    - NAVAL AIR STATION
         EL CENTRO NAS IS EL CENTRO NAVAL AIR STATION
N/A    - NOT AVAILABLE




USA.gov is the U.S. government's official web portal to all federal, state and local government web resources and services.